Tracking 29494 objects as of 8-Sep-2024
HD Live streaming from Space Station
objects crossing your sky now

FENGYUN 1C DEB

Track FENGYUN 1C DEB now!
10-day predictions


NORAD ID: 31879
Int'l Code: 1999-025CKE
Perigee: 610.7 km
Apogee: 918.8 km
Inclination: 99.7 °
Period: 100.0 minutes
Semi major axis: 7135 km
RCS: 0.0119 m2 (small)
Launch date: May 10, 1999
Source: People's Republic of China (PRC)
Launch site: Taiyaun Space Center, China (TSC)

Note: This is SATELLITE DEBRIS
Your satellite tracking list
Your tracking list is empty




NASA's NSSDC Master Catalog

Two Line Element Set (TLE):
1 31879U 99025CKE 24249.93102841  .00003742  00000-0  91288-3 0  9999
2 31879  99.7400  57.6732 0215903 296.0570  61.8531 14.40266336565407
Source of the keplerian elements: AFSPC